Flag for Germany Weather past 2 weeks in Hoyerswerda, Saxony, Germany

Now
35 °F

Light rain. Low clouds.


Feels Like: 30 °F
Forecast: 33 / 43 °F
Wind: 6 mph from West

Location: Cottbus

Current Time: Apr 2, 2015 at 9:09:12 AM

Latest Report: Apr 2, 2015 at 8:00 AM


Visibility: 3 mi

Pressure: 29.64 "Hg

Humidity: 99%

Dew point: 35 °F

Location of HoyerswerdaLocation

Historic Weather in Hoyerswerda — Graph

°F

Hoyerswerda temperature yesterday

Maximum temperature yesterday: 45 °F (at 2:00 PM)
Minimum temperature yesterday: 37 °F (at 10:00 PM)
Average temperature yesterday: 40 °F

Past Weeks' High & Low Weather Summary

 TemperatureHumidityPressure
High65 °F (Mar 25, 4:00 PM)99% (Mar 31, 11:00 AM)30.40 "Hg (Mar 31, 11:00 AM)
Low23 °F (Mar 20, 6:00 AM)20% (Mar 18, 4:00 PM)29.12 "Hg (Mar 30, 1:00 AM)
Average43 °F69%29.89 "Hg
* Reported Mar 18 7:00 AM — Apr 2 8:00 AM, Hoyerswerda, Weather by CustomWeather, © 2015

Note: Actual official high and low records may vary slightly from our data, if they occured in-between our weather recording intervals... More about our weather records

Advertising

Hoyerswerda weather history for previous 24 hours

 ConditionsComfort  
Time TempWeatherWind HumidityBarometerVisibility
8:00 AM
Thu, Apr 2
35 °FLight rain. Low clouds.6 mph99%29.64 "Hg3 mi
7:00 AM34 °FFreezing rain. Low clouds.5 mph98%29.65 "Hg4 mi
6:00 AM33 °FSnow. Low clouds.3 mph99%29.70 "Hg1 mi
5:00 AM35 °FLight rain. Low clouds.6 mph94%29.74 "Hg4 mi
4:00 AM35 °FOvercast.5 mph85%29.78 "Hg22 mi
3:00 AM35 °FOvercast.6 mph85%29.82 "Hg22 mi
2:00 AM35 °FClear.7 mph83%29.85 "Hg37 mi
1:00 AM36 °FPassing clouds.6 mph83%29.86 "Hg25 mi
12:00 AM36 °FOvercast.6 mph83%29.86 "Hg25 mi
11:00 PM
Wed, Apr 1
37 °FOvercast.6 mph81%29.86 "Hg25 mi
10:00 PM37 °FOvercast.6 mph78%29.85 "Hg34 mi
9:00 PM38 °FOvercast.6 mph72%29.83 "Hg34 mi
8:00 PM40 °FOvercast.8 mph67%29.81 "Hg37 mi
7:00 PM41 °FOvercast.7 mph66%29.79 "Hg43 mi
6:00 PM43 °FOvercast.9 mph59%29.78 "Hg43 mi
5:00 PM44 °FOvercast.7 mph62%29.77 "Hg40 mi
4:00 PM43 °FOvercast.8 mph65%29.76 "Hg25 mi
3:00 PM40 °FLow clouds.8 mph79%29.76 "Hg31 mi
2:00 PM45 °FPartly sunny.9 mph64%29.72 "Hg28 mi
1:00 PM42 °FLow clouds.6 mph82%29.73 "Hg28 mi
12:00 PM42 °FOvercast.7 mph73%29.72 "Hg28 mi
11:00 AM40 °FLow clouds.7 mph78%29.70 "Hg19 mi
10:00 AM38 °FDrizzle. Low clouds.6 mph88%29.69 "Hg13 mi
9:00 AM37 °FLight freezing rain. Low clouds.8 mph85%29.66 "Hg8 mi
Weather by CustomWeather, © 2015

See weather overviewHow to use our weather pages